Lid_Strength_Index
-1 -0 1 5 10 11 13 11 9 10 10 10 9 9 10 8 8 11 4 2 0 0 -0 -0 -1 -1 -1 -1 -1 -1 -1 -1 -2 -2 -2 -1 -1 -1 -1 -1 -1 -2 -1 -1 -1 -1 -1 -1 -1
0 1 4 7 12 15 13 11 10 10 9 8 8 8 9 9 5 4 4 2 0 0 -0 -0 -1 -1 -1 -1 -1 -1 -1 -1 -1 -1 -1 -1 -1 -1 -1 -1 -1 -1 -1 -1 -1 -1 -1 -1 -1
0 1 7 9 12 14 13 11 10 9 9 8 8 8 8 7 5 4 3 1 0 0 -0 -0 -1 -1 -1 -1 -1 -1 -1 -1 -1 -1 -1 -1 -1 -1 -1 -1 -1 -1 -1 -1 -1 -1 -1 -1 -1
3 5 7 11 12 10 10 11 9 9 8 7 8 9 6 5 4 3 2 1 3 1 0 -1 -1 -1 -1 -2 -1 -1 -1 -1 -1 -1 -1 -1 -1 -1 -1 -2 -2 -1 -1 -1 -1 -1 -1 -1 -1
4 7 11 12 11 10 9 9 9 10 9 8 8 9 7 5 3 2 2 2 1 1 -0 -0 -1 -1 -1 -1 -1 -1 -1 -1 -1 -1 -1 -1 -1 -1 -1 -1 -1 -1 -1 -1 -1 -1 -1 -1 -1
7 8 13 14 12 9 9 8 9 9 9 7 8 9 8 5 3 3 2 3 0 1 -0 -0 -1 -1 -1 -1 -1 -1 -1 -1 -1 -1 -1 -1 -1 -1 -1 -1 -1 -1 -1 -1 -1 -1 -1 -1 -1
9 10 13 12 11 10 8 8 10 10 8 7 7 9 8 5 3 2 3 2 2 0 0 0 0 -0 -1 -1 -1 -1 -2 -2 -2 -1 -1 -1 -1 -1 -1 -1 -1 -1 -1 -1 -1 -1 -1 -1 -1
7 9 12 12 12 11 7 7 7 8 8 5 5 9 9 6 3 2 2 2 2 1 0 0 0 0 0 0 -1 -1 -1 -1 -1 -1 -1 -1 -1 -1 -2 -2 -2 -1 -1 -1 -1 -1 -1 -1 -1
5 12 14 12 11 9 6 8 6 5 6 6 6 6 5 3 3 3 4 3 3 2 2 1 0 0 0 0 -0 -1 -1 -1 -1 -1 -1 -0 0 0 -0 -1 -1 -2 -1 -1 -1 -1 -1 -1 -1
8 12 12 8 8 8 7 7 7 7 7 7 6 5 5 4 4 4 4 4 4 3 2 2 1 1 1 0 0 0 -0 0 0 0 0 0 1 1 0 0 -1 -1 -1 -2 -1 -1 -1 -1 0
9 12 9 8 6 6 7 7 6 8 8 7 6 6 5 5 5 5 6 4 3 3 2 2 2 2 2 1 1 1 1 1 1 1 1 1 1 2 2 2 1 2 1 1 1 1 0 0 0
10 8 7 7 6 6 7 6 7 7 7 5 5 5 5 5 5 5 6 6 4 3 2 2 2 2 2 2 1 2 1 2 2 2 2 2 2 2 2 2 2 1 1 1 1 0 0 0 0
9 8 7 6 6 6 6 7 7 7 5 5 4 4 5 5 5 5 6 4 4 4 3 2 2 2 2 2 2 2 2 2 2 1 1 1 2 1 1 1 1 1 1 0 0 1 1 1 2
7 8 7 6 7 6 7 7 7 6 5 5 5 5 6 6 6 6 6 5 4 4 3 3 2 2 2 2 2 2 2 1 1 0 1 0 1 2 1 1 2 2 3 4 4 5 5 5 4
7 10 8 8 7 8 7 9 9 6 5 6 6 6 8 6 6 5 4 4 5 5 5 3 3 2 2 2 2 2 2 0 1 1 1 0 0 1 2 5 6 5 5 5 5 6 6 6 6
10 10 14 9 8 7 8 13 7 6 6 7 7 8 7 6 6 5 4 4 5 5 5 4 3 3 2 2 2 1 1 2 3 5 5 6 6 6 6 7 7 6 6 6 7 8 8 8 8
12 15 15 12 8 8 9 12 8 6 7 8 8 9 7 6 6 6 4 4 4 4 3 3 3 3 2 3 3 4 6 6 6 6 7 7 7 7 7 8 8 8 7 8 9 9 10 10 10
14 15 13 14 10 9 11 11 8 7 7 8 9 9 8 6 6 6 5 5 3 3 3 3 2 2 3 6 6 6 7 7 7 8 8 8 8 9 9 9 10 9 9 10 11 12 11 11 11
11 12 13 11 9 11 11 11 9 7 8 9 10 9 8 7 6 5 5 4 4 3 3 3 3 3 5 7 7 8 8 8 9 9 10 10 10 10 11 10 10 10 10 11 11 12 11 11 11
11 14 14 11 9 11 11 11 9 8 7 8 8 9 8 7 7 6 5 5 4 4 4 4 5 5 6 6 7 8 8 8 8 10 11 12 12 11 11 11 11 11 11 12 12 12 12 11 11
12 14 13 13 11 10 12 13 11 8 8 8 8 8 7 7 7 7 6 7 7 7 7 6 6 6 6 6 6 6 7 7 8 10 11 12 12 11 11 11 11 12 12 13 13 12 12 12 12
14 10 11 12 13 17 11 19 13 10 10 9 9 8 8 8 7 6 6 7 7 8 7 6 6 6 6 6 6 8 8 9 10 10 12 12 12 12 11 11 12 13 12 13 13 12 13 13 13
12 9 10 11 14 14 14 17 13 10 11 10 10 8 8 8 7 7 6 6 6 6 8 8 7 7 7 8 9 9 10 10 10 11 12 12 12 12 12 12 13 13 13 13 13 14 14 13 14
8 11 11 12 14 19 16 16 16 12 10 9 11 9 9 8 8 7 6 6 7 7 8 8 8 9 9 9 9 10 11 11 12 12 13 12 12 13 13 12 13 13 13 14 14 14 14 15 14
11 13 19 20 20 20 14 17 15 11 9 8 10 9 9 8 8 7 7 7 8 8 8 9 9 10 11 11 12 12 12 12 13 13 13 14 14 14 14 14 14 14 14 14 14 15 15 15 15
13 13 18 23 21 18 14 19 14 9 9 9 9 8 8 8 7 7 7 7 8 7 8 9 10 11 12 12 13 12 12 13 13 13 14 15 15 14 14 14 14 15 14 15 15 15 15 15 15
13 15 11 17 16 19 17 14 11 11 11 10 9 8 8 8 7 7 7 7 8 8 9 10 11 12 12 12 13 14 13 13 14 15 15 15 15 13 14 15 15 15 15 15 16 16 16 16 15
10 10 16 16 22 23 19 16 15 13 12 10 10 9 8 8 8 7 7 7 8 8 9 10 10 11 12 13 14 14 14 14 15 16 16 15 15 15 15 15 16 16 16 16 16 16 15 15 14
13 14 13 14 16 21 22 17 12 12 11 10 9 8 8 8 8 7 7 7 8 9 10 11 11 12 13 13 14 15 14 16 16 16 15 15 15 15 15 15 16 16 16 16 16 16 15 15 14
11 13 12 16 18 17 16 16 12 11 11 9 9 8 8 7 8 7 7 8 9 10 10 11 12 13 13 14 14 15 16 16 16 16 16 15 16 16 16 16 16 16 16 15 16 15 15 15 15